{"data":{"norad_id":60591,"epoch":"2026-05-24T21:20:56.896224Z","epoch_age_seconds":81036,"freshness":"FRESH","line1":"1 60591U 24150J   26144.88954741 -.00003048  00000+0 -90836-4 0  9992","line2":"2 60591  53.1605 313.3882 0000585  92.0279 268.0789 15.30197154 99620","mean_motion":15.30197154,"eccentricity":5.85e-5,"inclination_deg":53.1605,"raan_deg":313.3882,"arg_perigee_deg":92.0279,"mean_anomaly_deg":268.0789,"bstar":-9.0836e-5,"rev_number":9962,"period_min":94.105520732134,"perigee_km":474.82264548233,"apogee_km":475.62448866867,"semimajor_km":6853.3605670755,"source":"CELESTRAK","updated_at":"2026-05-25T13:38:19.279788Z"}}